Theta_e
317 315 315 315 316 317 316 315 315 316 316 315 314 315 315 315 316 316 316 317 317 317 318 317 318 320 320 320 320 320 321 321 321 321 324 338 347 349 348 347 346 346 345 342
315 315 317 317 317 317 316 315 316 316 316 316 315 315 315 315 315 318 319 320 319 320 320 319 318 318 320 320 320 320 320 322 321 320 321 322 333 346 349 349 348 347 346 345
316 317 318 318 318 317 316 316 316 316 316 315 315 315 315 315 318 320 320 320 320 321 321 321 320 319 319 320 320 320 321 320 321 320 320 320 324 339 346 348 348 348 347 345
317 317 319 318 318 317 317 317 317 317 315 315 315 315 314 318 319 319 320 319 320 321 321 321 321 321 319 319 320 320 321 321 321 320 320 324 322 335 340 347 348 348 348 346
319 318 318 318 317 318 317 317 316 316 315 313 315 314 315 317 320 320 319 320 320 321 321 321 320 321 320 320 320 321 321 324 322 321 320 323 326 334 339 344 347 347 347 346
318 319 317 317 317 317 316 315 314 314 314 316 317 320 319 318 323 320 320 320 320 321 321 322 322 322 322 320 321 320 321 321 323 322 321 320 320 325 325 342 345 346 346 346
318 318 317 317 316 315 314 312 315 317 313 317 316 318 318 321 321 321 320 319 319 319 321 322 321 322 324 324 321 321 321 322 324 322 322 320 321 328 328 335 342 344 346 345
318 319 317 317 315 314 315 314 320 319 318 317 316 318 322 320 318 319 319 318 318 318 320 321 322 321 321 323 324 324 320 320 322 324 323 322 326 330 334 331 335 341 344 345
318 319 317 317 315 315 315 314 316 313 317 320 318 318 321 317 318 319 320 319 318 319 319 320 321 322 322 322 323 324 325 324 321 325 325 328 326 332 336 334 340 342 342 343
319 318 317 316 315 315 314 315 319 317 322 319 315 316 322 319 321 319 319 318 317 317 316 317 320 320 320 319 323 321 325 328 331 329 329 328 329 331 332 336 342 339 342 342
318 315 317 315 315 314 313 317 316 317 318 314 319 315 316 315 317 316 316 315 315 315 315 315 316 318 318 319 321 322 326 325 326 331 332 331 330 330 330 330 336 342 341 340
317 316 315 316 314 314 314 318 317 318 314 313 315 315 313 315 315 316 313 313 313 313 312 314 314 314 317 318 320 321 324 327 326 324 326 327 333 332 331 328 331 338 338 335
316 311 316 315 313 314 316 316 315 314 314 317 315 316 315 315 315 313 312 312 312 312 314 314 314 314 315 316 319 320 320 323 326 328 325 325 331 332 330 330 331 332 334 334
316 314 316 317 316 315 316 317 316 317 318 318 317 317 317 315 312 310 310 309 309 309 309 310 313 314 314 315 317 319 320 320 321 327 326 327 330 328 325 330 329 328 332 333
316 316 316 316 316 316 316 316 317 319 317 318 318 316 315 313 310 310 310 309 308 308 309 309 311 312 312 313 314 317 318 320 320 319 327 327 330 331 332 332 328 330 334 335
315 315 316 317 318 318 319 318 318 318 317 316 316 316 314 311 310 310 309 307 307 307 307 307 309 310 310 311 311 314 317 318 320 319 320 327 327 332 330 331 328 332 335 334
314 315 316 320 319 319 317 318 318 317 317 313 314 314 310 311 310 309 307 305 305 305 306 306 307 307 308 309 310 312 313 317 320 319 318 322 326 331 330 329 329 330 334 333
315 318 319 320 318 318 316 317 317 317 316 315 314 313 310 309 307 306 304 304 304 305 305 305 305 306 306 307 309 312 312 314 318 319 318 318 324 330 329 329 328 335 332 332
316 318 319 319 315 316 317 318 312 313 315 312 308 308 307 306 305 304 305 304 303 302 303 303 303 304 304 306 307 309 311 312 316 318 317 318 324 326 328 328 329 334 333 331
313 314 317 315 316 318 317 317 316 315 316 310 308 307 306 304 303 305 304 302 303 305 305 304 306 305 304 305 307 308 309 311 316 317 317 318 324 326 327 328 330 331 329 325
313 314 315 315 314 315 316 316 315 313 314 308 307 305 303 302 302 302 300 302 302 303 306 310 312 310 309 307 307 308 309 310 315 317 317 318 320 327 328 327 328 326 323 321
312 311 310 316 314 312 315 315 315 311 309 307 305 303 301 301 300 300 300 300 303 306 309 312 309 309 312 309 307 308 310 310 315 318 318 318 321 326 326 326 326 324 320 319
311 312 314 315 312 313 315 313 309 309 306 304 303 301 300 299 299 299 300 302 305 310 312 311 308 310 310 309 307 307 310 311 315 318 318 318 324 326 325 326 324 321 319 318
310 311 311 312 314 313 315 311 310 307 305 303 302 300 299 299 299 299 300 303 306 312 314 310 308 305 306 307 307 307 310 312 316 317 318 319 323 322 323 321 320 320 319 316
309 310 313 313 312 313 313 310 307 305 303 302 301 300 299 299 299 298 300 303 307 310 313 311 309 307 306 306 306 310 312 313 317 318 319 322 322 321 319 317 318 320 319 319
311 314 314 313 311 312 309 306 304 303 302 301 299 299 299 299 298 299 300 305 308 309 311 313 313 309 307 308 309 310 312 315 316 319 321 322 320 320 319 317 315 313 317 317
Wind_Speed
16 4 7 12 7 6 6 9 13 17 8 13 14 17 24 23 28 31 35 37 38 41 41 40 42 35 36 32 32 29 25 30 30 27 32 31 41 44 33 39 43 35 33 34
7 7 12 19 16 8 9 13 11 12 13 14 14 20 25 21 20 18 22 23 22 16 24 40 39 38 35 39 38 35 37 30 33 32 34 35 34 41 38 34 39 39 36 32
7 11 18 12 16 16 12 10 6 10 15 16 12 19 19 17 10 21 26 28 31 27 23 27 33 37 37 35 35 38 37 36 33 33 31 32 33 36 44 41 34 38 39 38
8 12 16 13 16 14 14 7 9 12 13 17 3 14 18 8 11 16 25 35 38 37 23 20 28 34 38 38 39 37 34 35 33 33 30 30 35 40 40 50 42 34 41 38
15 13 14 12 9 11 7 9 9 12 15 10 14 7 7 7 8 14 14 33 44 35 26 15 21 24 35 33 39 35 32 31 33 31 27 30 33 36 34 40 49 40 40 42
10 16 8 10 17 14 21 14 18 7 6 8 3 1 4 4 5 6 19 27 28 36 32 22 16 17 26 33 34 36 33 33 31 30 30 31 35 34 33 37 41 48 38 37
7 7 9 17 23 16 14 9 7 5 3 7 5 9 6 8 11 8 9 24 24 35 34 33 29 18 23 25 27 36 34 33 31 32 32 27 35 34 32 33 39 38 40 35
5 7 8 20 13 8 9 5 3 5 3 15 14 6 3 4 18 24 14 29 25 30 28 25 33 23 9 24 16 14 36 37 33 34 29 26 29 30 29 29 33 35 34 33
3 5 16 10 11 7 7 6 1 2 5 5 5 1 2 11 13 14 16 21 24 24 23 22 26 25 19 19 16 19 8 34 35 36 30 27 26 27 25 22 25 28 30 34
5 10 2 9 17 9 15 7 2 2 3 5 5 6 3 4 4 5 5 13 22 25 29 28 18 17 16 26 16 15 8 2 25 30 29 26 20 22 20 19 22 23 26 32
4 3 8 7 4 18 13 3 3 3 3 3 5 4 7 7 4 6 4 19 26 29 30 29 30 22 21 25 16 5 13 2 2 32 27 24 23 18 13 15 19 18 22 22
3 2 5 15 22 17 12 0 15 3 8 5 6 16 11 1 12 11 11 19 25 28 38 35 30 29 26 25 18 14 8 7 4 7 3 14 19 14 11 11 16 18 18 17
4 0 6 11 6 7 4 12 16 13 3 11 6 10 5 13 11 17 18 23 28 31 29 31 38 34 27 24 19 16 11 11 10 8 4 3 14 17 12 8 11 13 14 19
9 6 8 12 17 13 21 20 20 15 5 7 12 20 16 7 8 12 19 23 26 28 31 35 33 32 25 20 20 20 14 15 16 10 8 2 10 16 17 15 14 12 12 16
4 5 7 13 17 18 20 24 25 20 17 8 10 11 12 6 6 14 28 36 42 42 36 30 29 29 25 21 22 13 25 17 14 15 14 12 4 17 20 20 15 15 13 15
4 5 6 16 16 19 24 22 14 12 9 7 8 16 13 10 15 23 31 37 39 36 38 33 29 34 41 35 22 24 12 17 15 14 20 16 9 17 26 24 19 19 22 27
10 10 7 15 13 15 12 5 6 7 6 2 9 18 6 13 15 34 38 40 38 34 32 33 30 29 38 33 32 28 24 12 19 20 21 20 6 14 25 23 23 21 21 22
9 6 4 10 7 5 4 5 4 8 10 14 15 9 8 20 34 43 40 34 32 30 32 36 33 30 31 32 31 24 31 18 11 18 21 20 6 13 22 23 22 23 20 25
9 5 5 3 3 14 8 4 3 4 19 6 8 17 23 33 32 46 10 27 32 37 44 43 40 36 33 30 32 29 32 29 12 18 22 18 6 19 20 22 23 29 30 30
13 1 2 4 9 12 1 2 8 6 7 6 14 16 18 26 13 20 45 52 51 48 45 42 41 35 31 33 23 31 35 31 17 21 22 16 7 19 23 26 30 33 31 30
7 5 6 4 5 7 2 16 12 3 8 17 22 24 26 13 17 42 50 52 47 46 46 43 31 33 26 28 24 25 35 38 19 17 21 17 11 24 29 29 32 33 32 31
5 4 3 2 4 7 23 21 4 6 17 21 23 28 30 34 39 39 42 45 45 46 45 25 25 25 24 25 30 28 26 38 21 18 22 18 17 26 31 29 35 33 33 33
5 3 5 4 5 19 28 5 14 12 18 22 28 35 34 35 37 40 40 43 44 44 37 23 22 13 19 25 35 29 25 35 22 20 23 23 23 29 29 33 39 37 37 38
8 19 6 14 3 19 23 21 21 21 25 30 35 35 36 36 37 38 38 37 39 38 14 13 12 4 14 19 34 28 22 35 23 25 26 27 32 33 33 38 41 41 39 42
17 17 9 8 17 23 11 18 20 27 31 38 36 34 36 35 39 34 35 36 33 29 20 9 7 2 9 20 28 23 24 32 22 29 30 33 33 35 38 40 39 38 37 38
9 5 4 11 24 12 17 21 28 32 34 36 34 37 34 32 35 29 32 29 25 24 18 6 6 4 11 28 22 28 28 25 32 33 36 37 40 38 39 40 42 37 37 42
Wind_Direction
313 315 253 258 290 311 321 304 288 290 310 354 332 318 306 315 302 289 284 277 270 265 267 268 266 265 239 233 235 242 239 235 230 231 236 236 230 219 217 213 219 222 217 215
337 313 325 322 310 322 296 276 294 304 337 326 322 300 292 293 282 313 312 315 286 291 296 266 256 255 245 233 231 237 241 233 229 238 242 243 241 231 221 216 220 217 216 220
311 292 304 312 317 310 293 301 302 312 319 295 289 277 290 288 311 315 303 296 304 292 291 298 263 248 248 243 239 234 237 230 229 231 242 244 244 241 231 222 224 219 217 220
280 300 297 302 286 285 285 303 324 315 312 292 26 307 310 344 348 338 326 337 331 298 284 320 269 246 244 243 240 233 229 228 223 224 239 239 242 234 234 226 224 220 223 215
283 283 282 294 315 316 305 323 322 318 303 321 309 269 322 351 336 342 341 342 351 317 304 338 317 326 247 234 233 223 222 222 220 223 243 240 241 238 242 239 226 220 217 210
284 341 342 344 1 5 344 339 324 339 320 286 318 80 272 306 275 327 342 333 316 9 358 10 4 11 354 234 230 221 222 223 223 225 243 242 239 238 241 237 235 229 218 210
340 316 316 34 348 343 347 343 327 326 354 257 313 326 289 347 315 284 311 331 347 1 11 8 12 15 31 16 232 224 219 224 226 232 236 236 234 240 244 240 238 237 224 228
326 332 348 348 339 314 330 327 141 271 293 295 293 246 147 324 344 318 15 359 335 359 5 18 13 2 346 355 7 268 221 226 226 226 226 227 227 239 244 244 238 240 233 220
357 247 327 321 356 345 298 322 244 137 239 276 250 286 43 24 357 334 350 331 345 342 8 356 24 35 9 338 341 4 256 225 224 221 218 224 227 234 239 238 233 234 234 233
337 310 280 326 327 291 333 281 0 43 307 285 281 303 211 339 242 325 302 330 2 6 359 356 0 359 342 328 347 290 8 334 219 220 207 218 219 231 238 231 230 231 237 243
15 130 288 331 305 305 309 13 346 202 215 241 303 264 211 231 1 322 348 7 3 358 349 344 337 323 330 321 310 255 288 139 88 226 218 217 211 217 234 248 238 226 234 244
112 248 293 294 289 281 256 163 283 195 284 233 262 287 256 93 347 337 20 358 347 339 329 322 321 320 312 308 291 296 310 260 218 204 133 221 200 215 232 260 249 236 231 236
180 288 307 307 310 357 7 308 311 298 14 279 272 268 307 324 317 18 7 349 341 333 324 313 309 308 304 298 301 279 290 294 249 223 201 233 221 219 229 203 236 245 232 227
174 188 196 260 272 287 293 290 288 292 268 277 263 285 307 316 17 353 335 327 323 319 310 304 298 291 299 292 279 285 271 268 274 244 225 263 240 233 242 213 220 237 220 218
182 238 247 264 274 282 287 290 292 289 257 246 292 302 311 346 345 325 320 324 322 312 300 288 278 281 284 290 294 275 269 258 266 270 238 227 334 243 201 194 205 217 198 194
173 253 254 271 281 282 279 279 289 283 294 279 305 292 292 343 332 317 311 314 307 301 297 293 289 280 279 278 289 272 279 264 247 262 252 240 224 221 207 195 201 196 177 158
255 269 279 273 284 289 288 242 262 289 289 264 281 282 7 325 322 307 316 309 305 297 293 293 289 282 266 273 271 274 259 262 239 245 256 251 292 224 211 198 198 194 186 184
233 251 250 280 278 250 219 95 316 267 274 273 280 322 325 313 313 304 303 293 292 296 293 290 283 277 278 271 250 252 254 248 253 231 243 249 289 220 207 197 191 176 168 162
214 240 303 295 277 279 288 23 261 222 289 20 351 323 314 317 313 303 314 306 297 291 292 289 285 273 270 258 252 239 240 238 235 229 233 247 228 213 203 195 179 166 165 166
8 332 229 271 289 291 296 358 295 273 270 12 335 316 313 320 303 298 317 317 315 318 311 300 295 280 260 244 245 239 234 230 222 222 224 240 223 207 199 188 172 167 171 169
323 319 271 303 286 271 86 10 354 13 309 326 321 310 309 295 283 295 305 311 312 310 309 311 296 276 260 232 221 226 229 224 211 212 210 227 240 206 207 187 174 170 171 168
302 283 291 328 273 280 352 351 346 274 302 314 310 311 305 297 300 302 304 307 313 313 316 306 297 276 254 220 205 215 209 214 200 199 199 209 231 206 202 187 173 173 168 159
305 325 287 265 253 301 315 91 340 325 326 322 312 315 309 302 305 309 309 316 318 320 322 298 319 268 234 209 202 206 199 194 185 188 191 206 204 190 199 187 173 166 162 160
298 304 287 316 321 307 314 338 344 335 325 323 322 316 314 305 309 310 312 313 320 333 301 295 333 250 209 206 199 200 189 188 180 185 191 203 190 184 180 178 173 166 165 162
285 295 303 286 276 309 334 344 337 329 328 329 326 323 316 314 314 316 319 316 328 330 329 279 316 291 199 175 183 179 181 180 180 187 191 192 189 183 176 176 173 170 170 171
251 302 293 310 302 303 334 342 340 332 330 327 324 323 326 318 318 321 320 327 341 330 332 344 233 200 167 168 169 175 171 171 183 182 185 187 179 177 175 170 162 165 163 165